Theta_e
297 299 300 301 303 306 312 315 319 319 323 326 328 329 329 329 327 328 328 325 321 318 317 311 309 309 308 303 301 299 297 296
296 297 298 298 298 300 301 303 306 312 315 319 323 325 326 327 325 322 320 318 317 314 310 308 307 306 303 300 297 295 293 293
296 297 297 297 298 298 299 301 302 304 306 310 315 317 318 318 318 318 314 311 312 309 308 305 304 302 300 297 295 294 292 291
297 297 297 297 298 298 299 301 303 305 304 305 306 311 314 314 312 311 309 307 306 306 305 302 301 300 298 297 295 293 292 290
296 297 297 298 298 298 299 301 303 304 304 303 303 305 307 312 310 307 305 303 302 302 302 299 298 297 295 293 292 291 290 289
296 297 298 297 297 298 299 301 301 301 300 301 301 302 302 300 299 297 298 298 297 295 293 293 294 293 291 291 291 289 287 287
295 296 297 298 297 298 298 299 299 299 298 299 298 295 293 292 292 291 290 291 290 289 290 291 292 293 293 291 289 288 287 286
296 296 297 297 298 297 297 298 297 295 292 292 291 291 290 289 288 288 289 288 288 289 289 289 289 292 292 290 288 287 286 286
295 296 297 298 298 298 297 295 292 290 290 289 289 288 287 287 288 288 288 287 287 287 288 287 286 292 292 289 287 286 285 285
295 296 296 296 297 295 291 290 289 289 289 288 287 285 286 285 287 287 286 286 286 286 286 286 286 291 290 287 286 285 285 284
294 295 294 292 292 290 289 288 288 288 288 288 287 284 284 284 284 283 286 285 285 285 286 286 287 291 290 288 286 285 284 283
292 291 290 288 288 288 288 287 288 287 286 284 284 282 283 282 282 282 282 284 284 284 285 286 287 288 290 289 285 285 283 282
287 285 285 285 287 286 285 286 282 282 282 282 280 282 283 280 281 284 285 285 284 284 283 284 285 287 290 289 288 287 284 282
283 283 283 282 283 283 282 281 281 281 278 282 281 283 284 280 283 284 285 284 283 283 283 283 284 286 289 290 288 288 284 283
279 279 279 280 281 279 280 279 284 284 282 280 280 279 279 282 282 284 284 284 284 283 284 283 283 285 286 287 287 286 285 286
279 278 278 278 278 276 278 279 280 280 280 282 282 279 279 280 280 281 281 284 285 285 285 284 282 284 287 287 286 285 286 284
276 276 275 275 274 275 276 277 277 279 278 278 278 277 278 278 279 286 287 288 288 289 286 282 287 287 287 288 288 288 288 283
273 272 271 271 270 270 272 273 274 274 277 277 277 277 277 277 277 277 281 287 286 287 288 288 286 288 287 288 288 288 288 283
269 268 267 267 267 267 268 270 271 279 278 274 275 276 276 276 276 275 275 274 275 281 285 286 287 287 288 287 287 284 286 284
267 265 265 264 265 265 266 268 274 276 280 280 281 281 280 279 278 277 277 275 274 273 279 279 286 286 287 287 284 283 282 284
Wind_Speed
2 5 5 7 7 6 7 8 9 8 11 13 15 15 16 13 14 13 10 10 11 11 10 9 9 10 10 7 6 8 5 7
3 3 3 1 3 6 7 8 8 8 7 8 10 11 10 11 9 7 6 9 12 12 11 10 10 10 10 9 9 9 7 7
1 2 4 4 4 5 4 6 6 5 6 5 4 4 6 6 6 4 5 5 10 10 10 11 11 12 13 12 11 12 11 10
2 3 4 4 5 5 6 5 4 3 4 3 4 3 5 5 4 6 6 6 5 8 10 10 12 12 11 13 14 13 12 12
4 4 4 5 5 5 6 6 6 6 7 7 7 7 6 6 6 6 7 7 7 8 9 10 11 10 10 12 12 11 11 10
3 3 4 5 6 6 6 6 5 5 5 5 4 3 1 1 2 3 4 4 6 7 6 6 9 9 11 11 11 12 10 9
3 4 5 6 7 6 7 7 6 7 7 5 4 3 3 5 5 4 4 5 5 6 7 9 7 11 15 12 9 12 12 11
7 5 4 5 5 6 7 6 7 7 6 6 6 6 6 5 5 4 4 3 5 4 5 7 5 13 14 10 10 10 11 11
4 3 2 3 2 1 2 3 3 3 5 6 7 7 6 6 6 5 4 6 5 5 5 4 3 14 16 12 7 8 8 10
3 4 6 6 4 5 5 3 3 5 6 5 5 4 6 7 7 5 5 5 5 5 5 6 5 16 17 13 9 9 9 9
3 3 6 5 5 5 3 3 2 2 4 6 5 3 5 5 6 4 4 4 4 5 7 8 9 17 20 16 8 9 7 7
7 6 5 5 4 5 4 4 2 1 2 1 2 3 2 2 2 4 4 5 4 5 4 7 9 13 21 19 8 8 8 8
7 6 6 6 5 6 7 5 3 3 3 2 2 0 1 3 1 2 4 5 5 5 3 3 6 12 19 21 15 13 9 10
5 5 6 7 6 6 4 3 3 5 3 2 2 2 2 3 3 2 3 3 3 4 4 4 4 6 17 19 17 15 8 5
4 7 7 6 7 5 5 4 4 5 4 3 2 2 1 0 1 3 4 4 4 5 5 4 4 6 7 9 9 10 6 8
5 7 7 5 7 5 5 4 3 4 3 3 2 1 1 2 3 2 2 3 4 6 5 6 7 9 10 10 9 9 11 7
8 6 4 5 7 8 8 6 4 4 3 3 2 1 1 2 4 5 7 7 10 9 5 2 8 12 20 21 22 21 19 8
5 4 5 6 6 6 6 5 5 4 4 3 2 1 1 1 2 3 4 7 7 9 9 10 7 10 17 20 22 22 19 11
6 7 6 5 7 8 7 7 4 4 4 2 2 2 3 3 2 2 2 3 4 6 10 10 11 11 15 20 19 10 17 11
8 6 5 6 8 8 7 6 5 5 5 4 3 2 2 1 2 2 2 3 4 3 4 5 12 13 13 17 10 10 11 12
Wind_Direction
172 205 204 200 209 214 210 213 220 218 219 219 216 213 217 216 213 209 202 179 179 179 181 173 169 164 163 149 148 144 149 146
114 107 113 82 204 209 212 217 216 220 228 224 226 227 219 219 219 204 168 166 169 172 165 172 175 171 163 154 155 147 155 152
144 200 210 217 229 227 228 224 232 231 225 239 244 221 213 208 201 168 171 178 169 163 175 172 178 176 168 162 161 160 166 171
173 218 227 216 212 213 217 225 216 200 190 217 230 233 213 198 173 169 162 167 164 167 178 180 181 181 175 171 164 172 172 170
242 226 210 201 203 214 213 191 187 173 185 201 211 209 200 186 175 178 175 173 176 184 182 182 178 183 183 168 165 164 167 163
226 231 216 208 212 209 201 183 183 189 216 229 222 216 223 54 126 137 158 186 175 166 167 174 178 179 173 164 175 151 153 144
230 236 229 221 218 213 202 190 174 191 210 199 177 145 140 147 153 167 178 181 166 184 182 188 192 184 179 168 165 154 159 154
209 211 209 218 218 226 213 191 192 199 190 176 159 168 183 175 164 182 186 162 198 205 183 204 191 173 172 169 148 154 154 158
160 165 137 142 152 242 331 289 260 231 196 181 183 192 175 170 181 178 169 183 184 195 197 184 180 180 164 147 136 148 156 158
59 12 0 29 43 113 103 83 24 311 286 253 212 184 181 180 180 175 166 171 180 165 165 169 163 174 164 145 146 163 170 173
82 71 67 15 32 64 65 102 163 235 271 271 243 202 214 200 169 153 150 171 161 160 167 159 166 180 174 175 174 172 167 161
60 63 34 9 35 76 88 59 340 297 162 185 279 264 217 167 174 139 135 137 161 166 168 162 168 181 179 177 178 178 171 175
68 52 26 21 50 68 53 356 8 65 73 102 140 265 209 137 59 124 147 156 164 168 165 177 174 185 194 192 192 180 176 184
89 79 36 26 31 63 348 6 46 47 69 72 112 133 193 153 152 139 142 158 174 196 201 195 178 186 197 199 198 196 193 183
88 66 50 28 36 30 346 359 61 68 38 41 82 96 157 206 161 171 177 181 184 197 210 194 192 196 197 200 200 203 187 177
79 66 43 19 35 7 6 6 44 56 63 37 9 38 255 253 212 214 249 189 211 222 211 197 200 208 197 193 192 195 200 167
56 70 49 46 39 13 2 10 8 42 41 44 32 14 339 307 307 267 245 261 259 260 227 260 236 201 204 205 204 202 194 182
75 61 50 43 36 1 349 9 36 27 2 359 27 38 20 332 307 311 320 283 284 284 278 256 224 218 202 211 214 209 198 209
85 61 48 46 28 348 344 350 16 42 51 49 2 27 3 349 326 333 326 297 295 278 262 270 262 227 213 213 216 224 223 219
75 50 38 43 16 348 347 2 5 27 25 9 355 23 327 317 298 266 274 279 284 314 298 292 267 255 235 225 224 225 228 228